Wind_Speed
27 27 25 23 21 20 19 16 15 13 12 10 9 9 7 6 6 5 4 3 3 3 4 4 5 6 4 5 5 6 2 4
28 28 27 25 23 21 20 17 15 13 11 11 10 9 7 7 5 4 3 2 3 2 3 3 5 5 7 8 8 3 1 4
29 29 28 26 24 23 21 19 16 15 13 12 10 9 8 6 6 5 3 2 2 1 2 4 5 3 4 5 4 2 2 4
30 30 29 28 26 25 24 21 19 17 14 13 11 10 8 7 7 6 2 1 2 3 3 5 3 3 3 1 2 5 7 5
33 31 30 30 29 27 26 24 22 19 17 15 14 13 11 8 9 4 3 2 2 5 5 5 1 2 1 3 4 4 4 5
31 32 31 31 30 29 28 26 24 23 20 18 17 16 14 11 9 6 6 4 4 4 3 3 5 4 3 3 4 6 7 9
30 30 32 32 32 31 30 29 27 24 23 21 20 19 17 14 13 8 10 9 6 6 6 7 7 7 7 6 5 4 5 7
30 29 31 34 34 34 33 31 29 27 26 24 22 21 19 16 16 11 12 11 11 11 10 11 10 10 8 8 11 10 9 10
29 28 30 33 36 35 34 34 32 30 29 27 26 24 21 19 16 14 13 12 15 15 15 12 13 11 11 12 12 10 11 13
31 30 31 34 37 38 37 36 35 33 30 28 28 28 25 22 19 16 13 16 17 17 16 16 15 13 12 12 12 13 14 16
37 37 35 35 37 40 41 39 37 35 32 30 28 29 29 27 22 19 17 20 21 20 20 19 18 16 14 15 16 16 16 16
42 41 38 38 40 41 42 41 40 38 36 32 29 30 32 31 26 24 24 24 25 24 23 21 18 17 16 16 16 16 15 13
49 46 45 44 44 44 44 44 43 42 39 35 32 31 34 32 30 29 28 27 27 26 24 23 20 20 17 17 15 14 13 13
49 50 51 51 50 48 46 44 44 43 39 37 34 34 35 33 32 32 30 28 29 28 27 24 22 21 17 14 10 12 14 16
56 55 55 55 56 52 49 46 46 44 43 40 39 37 36 36 34 34 32 31 31 30 28 25 24 23 20 14 7 8 8 13
59 62 62 61 57 58 57 55 53 51 50 46 43 39 38 38 36 35 33 32 32 31 29 28 26 24 21 18 16 16 9 7
45 50 58 61 63 61 62 60 57 51 51 50 46 42 41 40 39 38 36 35 33 32 32 30 28 25 22 19 16 15 15 15
45 52 53 55 60 63 64 63 61 56 52 53 49 45 45 45 44 42 38 37 35 33 32 30 27 24 21 18 17 14 14 14
34 43 45 55 61 62 65 64 62 59 57 51 49 49 49 49 45 45 42 39 35 33 32 30 27 23 20 17 15 14 14 14
31 36 43 50 60 63 64 64 63 61 58 52 51 49 51 49 47 45 43 39 36 34 32 29 25 22 19 15 13 13 13 12
Wind_Direction
179 183 186 188 187 184 182 179 174 170 165 162 160 162 158 149 138 132 130 125 110 99 102 104 109 96 86 134 137 139 117 32
186 188 188 189 189 189 188 187 182 177 175 175 173 173 169 157 146 135 124 108 98 109 110 111 127 98 90 117 118 132 24 27
193 194 193 194 193 193 193 193 192 188 187 189 191 190 184 174 167 156 141 118 117 123 119 129 124 118 110 98 97 53 7 9
199 200 199 198 198 199 199 199 200 199 198 202 204 205 200 196 187 170 163 162 198 182 166 152 122 111 120 109 348 23 7 10
201 204 206 206 205 204 206 205 206 207 207 209 213 215 213 202 190 196 162 116 165 158 146 146 139 328 284 350 6 359 345 312
205 206 210 213 213 213 213 213 212 213 214 215 219 222 219 214 205 212 200 173 147 169 179 205 225 245 269 319 277 265 267 288
211 212 214 218 218 219 220 219 220 220 220 223 225 227 225 222 216 226 220 224 212 219 242 253 245 264 274 262 251 253 274 284
215 219 222 222 223 224 225 225 225 224 225 227 229 232 231 224 217 232 222 224 223 237 235 240 249 263 256 236 248 269 282 289
219 224 226 227 226 226 227 228 228 228 229 228 231 233 225 221 220 229 228 238 233 233 239 241 247 254 246 255 261 270 284 295
217 220 224 224 227 227 227 228 228 229 229 229 230 229 222 224 229 231 239 243 242 239 246 246 248 246 249 249 262 278 290 296
221 220 223 224 225 228 228 229 228 228 226 225 225 223 222 225 231 236 240 243 239 241 246 244 241 244 245 259 269 278 284 289
228 226 226 226 227 228 228 230 229 229 227 225 221 221 221 223 227 230 243 244 243 242 243 236 238 238 246 255 264 269 273 275
232 231 231 227 226 227 227 228 227 226 226 224 223 223 221 223 224 226 235 245 243 238 233 231 233 238 240 246 252 259 259 256
239 238 233 234 231 232 230 230 230 230 227 224 226 227 227 223 225 228 233 240 231 233 232 229 235 237 235 235 244 246 248 255
237 242 243 238 235 230 229 230 233 231 231 227 227 227 226 223 226 229 235 235 231 229 230 232 233 236 238 236 236 237 242 251
241 241 242 244 237 232 230 230 230 233 231 229 228 225 224 225 225 229 236 232 227 226 231 234 235 233 236 242 249 255 257 272
241 242 240 241 241 237 233 230 234 234 231 230 229 225 224 226 227 229 233 229 225 228 231 232 231 233 238 245 251 258 262 262
247 241 241 243 241 237 236 234 231 231 231 231 228 227 223 224 228 232 226 225 226 229 232 232 230 231 237 246 254 259 263 261
271 252 251 247 241 239 237 236 232 233 234 232 229 225 223 224 226 229 223 223 226 227 228 228 228 232 239 245 250 253 258 261
284 264 264 256 245 242 238 235 232 233 235 233 233 228 227 223 227 226 222 223 224 225 226 227 229 232 239 245 250 255 261 265
Height
1522 1526 1529 1532 1534 1536 1538 1540 1542 1544 1545 1546 1546 1547 1548 1549 1550 1551 1551 1552 1552 1552 1553 1553 1553 1553 1552 1552 1552 1553 1552 1552
1522 1525 1528 1530 1532 1535 1537 1540 1542 1544 1545 1546 1546 1547 1548 1549 1550 1551 1551 1552 1552 1552 1552 1553 1553 1553 1553 1553 1553 1553 1553 1552
1521 1523 1526 1528 1531 1533 1536 1538 1541 1543 1544 1545 1546 1547 1548 1549 1549 1550 1551 1551 1552 1552 1552 1552 1553 1553 1553 1554 1554 1553 1553 1552
1519 1522 1523 1526 1528 1531 1533 1536 1538 1541 1542 1544 1545 1546 1547 1548 1549 1549 1550 1551 1551 1551 1552 1553 1553 1553 1553 1553 1553 1553 1552 1552
1516 1520 1522 1524 1526 1528 1531 1533 1536 1538 1540 1542 1543 1545 1546 1547 1548 1549 1550 1550 1550 1551 1552 1552 1553 1553 1553 1553 1553 1552 1552 1551
1515 1517 1519 1522 1525 1526 1529 1531 1533 1535 1537 1539 1541 1542 1544 1546 1547 1548 1549 1550 1550 1551 1551 1552 1552 1552 1552 1551 1551 1550 1550 1548
1512 1515 1517 1519 1522 1524 1526 1528 1530 1533 1535 1537 1538 1540 1542 1543 1545 1546 1547 1548 1549 1549 1550 1550 1550 1551 1550 1549 1549 1548 1548 1547
1507 1510 1514 1516 1517 1520 1522 1525 1528 1530 1531 1533 1535 1537 1539 1541 1542 1543 1544 1546 1547 1548 1549 1548 1548 1548 1548 1548 1548 1547 1547 1546
1502 1504 1507 1510 1512 1514 1517 1520 1523 1525 1527 1529 1531 1533 1535 1538 1539 1541 1542 1544 1545 1546 1546 1546 1546 1546 1547 1547 1547 1546 1545 1544
1496 1498 1500 1503 1505 1509 1510 1513 1516 1519 1521 1525 1526 1529 1531 1533 1535 1538 1539 1541 1542 1543 1544 1544 1544 1544 1545 1545 1545 1544 1543 1541
1490 1492 1493 1496 1499 1502 1506 1509 1510 1513 1516 1518 1520 1523 1526 1528 1530 1533 1536 1537 1538 1540 1540 1541 1542 1542 1543 1543 1543 1542 1541 1540
1486 1488 1489 1492 1495 1498 1501 1504 1506 1508 1510 1513 1515 1517 1520 1523 1526 1528 1531 1533 1534 1536 1537 1538 1539 1539 1540 1540 1540 1539 1538 1537
1479 1481 1483 1485 1487 1490 1492 1492 1497 1501 1504 1508 1510 1512 1514 1517 1520 1523 1525 1528 1530 1532 1533 1535 1536 1536 1537 1537 1537 1535 1534 1533
1471 1472 1477 1477 1478 1480 1485 1489 1491 1494 1498 1502 1504 1506 1508 1510 1513 1516 1519 1522 1524 1526 1529 1530 1532 1533 1533 1533 1533 1533 1531 1530
1462 1464 1465 1468 1470 1474 1479 1485 1487 1489 1489 1493 1495 1499 1502 1505 1507 1510 1513 1515 1517 1520 1523 1525 1526 1528 1529 1529 1528 1527 1527 1527
1453 1455 1457 1458 1462 1464 1467 1468 1471 1472 1478 1483 1487 1492 1496 1498 1500 1503 1505 1508 1510 1514 1517 1520 1521 1522 1523 1523 1522 1523 1523 1523
1443 1444 1446 1449 1450 1453 1455 1460 1463 1468 1472 1475 1479 1484 1489 1493 1495 1496 1498 1501 1504 1507 1510 1513 1515 1516 1517 1517 1517 1518 1518 1519
1442 1441 1439 1438 1439 1442 1443 1448 1454 1458 1461 1465 1472 1477 1481 1483 1485 1488 1489 1492 1497 1501 1505 1508 1510 1512 1512 1512 1513 1514 1514 1514
1433 1433 1433 1432 1431 1431 1432 1437 1444 1448 1452 1457 1461 1467 1471 1474 1478 1479 1482 1486 1492 1496 1500 1503 1505 1507 1507 1508 1509 1510 1511 1511
1423 1422 1424 1423 1422 1422 1423 1428 1433 1438 1444 1451 1455 1458 1461 1466 1472 1475 1479 1482 1486 1490 1494 1497 1500 1502 1503 1504 1504 1504 1507 1507